VOZ7 YSSY-YBCG

Flight info

Callsign VOZ7
Flight time N/A
Altitude 33000
Route OLSEM1/34R OLSEM Y193 BANDA Y43 GREAV DCT GOMOL
Aircraft B38M/M-SDE1FGHILORVWXY/HB1

Departure

Time N/A
Airport Sydney Kingsford Smith International Airport (YSSY)

Arrival

Time 2026-05-01 08:13
Airport Gold Coast Airport (YBCG)
Time Latitude Longitude Altitude Speed Heading
2026-05-01 07:23 -33.00236 151.88428 23944 ft 475 kts 15°
2026-05-01 07:23 -32.93874 151.90468 25198 ft 463 kts 15°
2026-05-01 07:24 -32.90798 151.91452 26151 ft 451 kts 15°
2026-05-01 07:24 -32.87800 151.92411 27100 ft 441 kts 15°
2026-05-01 07:24 -32.84879 151.93345 27843 ft 436 kts 15°
2026-05-01 07:24 -32.81938 151.94285 28388 ft 436 kts 16°
2026-05-01 07:25 -32.78994 151.95225 28821 ft 438 kts 16°
2026-05-01 07:25 -32.76057 151.96161 29181 ft 442 kts 16°
2026-05-01 07:25 -32.73067 151.97114 29559 ft 445 kts 16°
2026-05-01 07:25 -32.70100 151.98060 29955 ft 447 kts 15°
2026-05-01 07:26 -32.67076 151.99022 30323 ft 450 kts 16°
2026-05-01 07:26 -32.64030 151.99991 30666 ft 452 kts 16°
2026-05-01 07:26 -32.61009 152.00951 30983 ft 454 kts 15°
2026-05-01 07:26 -32.57912 152.01935 31298 ft 457 kts 15°
2026-05-01 07:27 -32.54862 152.02903 31593 ft 460 kts 15°
2026-05-01 07:27 -32.51761 152.03887 31927 ft 461 kts 15°
2026-05-01 07:27 -32.48642 152.04875 32201 ft 465 kts 15°
2026-05-01 07:27 -32.45501 152.05870 32508 ft 467 kts 15°
2026-05-01 07:28 -32.42381 152.06857 32890 ft 467 kts 15°
2026-05-01 07:28 -32.39265 152.07843 33263 ft 468 kts 14°
2026-05-01 07:28 -32.36096 152.08845 33363 ft 467 kts 14°
2026-05-01 07:29 -32.29855 152.10815 33347 ft 464 kts 14°
2026-05-01 07:29 -32.23573 152.12796 33340 ft 465 kts 14°
2026-05-01 07:30 -32.17332 152.14761 33348 ft 467 kts 14°
2026-05-01 07:30 -32.11058 152.16733 33348 ft 467 kts 14°
2026-05-01 07:31 -32.04772 152.18707 33346 ft 474 kts 14°
2026-05-01 07:32 -31.88587 152.23775 33341 ft 482 kts 14°
2026-05-01 07:33 -31.78884 152.26804 33341 ft 483 kts 14°
2026-05-01 07:33 -31.69085 152.29857 33349 ft 485 kts 14°
2026-05-01 07:34 -31.59325 152.32892 33344 ft 485 kts 14°
2026-05-01 07:35 -31.52829 152.34907 33345 ft 485 kts 14°
2026-05-01 07:35 -31.46277 152.36938 33346 ft 486 kts 14°
2026-05-01 07:36 -31.39740 152.38960 33352 ft 485 kts 14°
2026-05-01 07:36 -31.33228 152.40972 33350 ft 485 kts 14°
2026-05-01 07:37 -31.23408 152.44001 33353 ft 487 kts 14°
2026-05-01 07:37 -31.16864 152.46015 33350 ft 487 kts 14°
2026-05-01 07:38 -31.10339 152.48021 33344 ft 486 kts 14°
2026-05-01 07:39 -31.01585 152.50708 33351 ft 488 kts 14°
2026-05-01 07:39 -30.91727 152.53729 33340 ft 488 kts 14°
2026-05-01 07:40 -30.85127 152.55747 33337 ft 488 kts 13°
2026-05-01 07:40 -30.78625 152.57969 33338 ft 490 kts 21°
2026-05-01 07:41 -30.72264 152.60902 33342 ft 490 kts 21°
2026-05-01 07:42 -30.62768 152.65299 33337 ft 490 kts 21°
2026-05-01 07:42 -30.56423 152.68233 33344 ft 492 kts 21°
2026-05-01 07:43 -30.50076 152.71164 33341 ft 493 kts 21°
2026-05-01 07:43 -30.40535 152.75563 33344 ft 493 kts 21°
2026-05-01 07:44 -30.27806 152.81417 33329 ft 492 kts 21°
2026-05-01 07:45 -30.21424 152.84346 33337 ft 492 kts 21°
2026-05-01 07:45 -30.15048 152.87268 33321 ft 493 kts 20°
2026-05-01 07:46 -30.08679 152.90183 33325 ft 494 kts 20°
2026-05-01 07:47 -29.99115 152.94552 33318 ft 493 kts 20°
2026-05-01 07:47 -29.92698 152.97479 33314 ft 494 kts 20°
2026-05-01 07:48 -29.83109 153.01845 33308 ft 495 kts 20°
2026-05-01 07:48 -29.76714 153.04751 33303 ft 495 kts 20°
2026-05-01 07:49 -29.67107 153.09110 33299 ft 495 kts 20°
2026-05-01 07:50 -29.60708 153.12009 33299 ft 496 kts 20°
2026-05-01 07:50 -29.51056 153.16373 33295 ft 496 kts 20°
2026-05-01 07:51 -29.44660 153.19260 33284 ft 496 kts 20°
2026-05-01 07:52 -29.34977 153.23624 33291 ft 497 kts 20°
2026-05-01 07:52 -29.31801 153.25053 32870 ft 495 kts 20°
2026-05-01 07:52 -29.28554 153.26514 31690 ft 503 kts 20°
2026-05-01 07:53 -29.22041 153.29439 29733 ft 506 kts 20°
2026-05-01 07:53 -29.18799 153.30894 28892 ft 503 kts 20°
2026-05-01 07:53 -29.15513 153.32369 27567 ft 508 kts 21°
2026-05-01 07:53 -29.12268 153.33823 26742 ft 503 kts 21°
2026-05-01 07:54 -29.05694 153.36766 24656 ft 502 kts 21°
2026-05-01 07:55 -28.96133 153.41039 22344 ft 485 kts 22°
2026-05-01 07:55 -28.89948 153.43800 21250 ft 466 kts 22°
2026-05-01 07:56 -28.81154 153.47717 19782 ft 442 kts 22°
2026-05-01 07:56 -28.75486 153.50238 18830 ft 430 kts 23°
2026-05-01 07:57 -28.72715 153.51470 18339 ft 425 kts 23°
2026-05-01 07:57 -28.67288 153.53880 17292 ft 415 kts 23°
2026-05-01 07:58 -28.61938 153.56252 16380 ft 404 kts 23°
2026-05-01 07:58 -28.56861 153.58501 15170 ft 382 kts 23°
2026-05-01 07:59 -28.52019 153.60568 14009 ft 363 kts 21°
2026-05-01 07:59 -28.47324 153.62345 12720 ft 348 kts 21°
2026-05-01 08:00 -28.38456 153.65711 10291 ft 326 kts 21°
2026-05-01 08:01 -28.32047 153.68039 8698 ft 321 kts 21°
2026-05-01 08:01 -28.29936 153.68805 8384 ft 317 kts 20°
2026-05-01 08:01 -28.27763 153.69094 8009 ft 322 kts 356°
2026-05-01 08:02 -28.23513 153.67481 7366 ft 320 kts 343°
2026-05-01 08:02 -28.21414 153.66623 7031 ft 317 kts 343°
2026-05-01 08:03 -28.17301 153.64964 6346 ft 314 kts 343°
2026-05-01 08:03 -28.15245 153.64140 6003 ft 312 kts 344°
2026-05-01 08:03 -28.11221 153.62527 5506 ft 302 kts 344°
2026-05-01 08:04 -28.07315 153.60964 5044 ft 292 kts 344°
2026-05-01 08:04 -28.03554 153.59460 4564 ft 283 kts 344°
2026-05-01 08:05 -27.99937 153.57972 4283 ft 266 kts 343°
2026-05-01 08:05 -27.98244 153.57275 4186 ft 256 kts 344°
2026-05-01 08:05 -27.96598 153.56576 4109 ft 246 kts 343°
2026-05-01 08:06 -27.93492 153.55244 3700 ft 236 kts 338°
2026-05-01 08:06 -27.92024 153.52257 3068 ft 233 kts 255°
2026-05-01 08:07 -27.93917 153.49679 3068 ft 220 kts 217°
2026-05-01 08:07 -27.96210 153.47346 3012 ft 223 kts 216°
2026-05-01 08:08 -27.97377 153.46183 3006 ft 223 kts 216°
2026-05-01 08:08 -27.99730 153.43886 2962 ft 223 kts 216°
2026-05-01 08:09 -28.02097 153.42114 2861 ft 186 kts 180°
2026-05-01 08:09 -28.03296 153.42314 2682 ft 171 kts 153°
2026-05-01 08:09 -28.04342 153.42896 2496 ft 166 kts 149°
2026-05-01 08:10 -28.06314 153.44129 2090 ft 152 kts 147°
2026-05-01 08:10 -28.08074 153.45247 1724 ft 140 kts 146°
2026-05-01 08:11 -28.09778 153.46315 1359 ft 141 kts 149°
2026-05-01 08:11 -28.11465 153.47404 979 ft 137 kts 148°
2026-05-01 08:12 -28.13056 153.48434 571 ft 134 kts 149°
2026-05-01 08:12 -28.13879 153.48952 393 ft 142 kts 156°
2026-05-01 08:12 -28.15570 153.50061 96 ft 136 kts 156°
2026-05-01 08:13 -28.16372 153.50528 29 ft 108 kts 152°
2026-05-01 08:13 -28.16804 153.50800 30 ft 43 kts 151°
2026-05-01 08:13 -28.16905 153.51037 29 ft 12 kts 64°
2026-05-01 08:14 -28.16871 153.51103 28 ft 8 kts 61°
2026-05-01 08:14 -28.16856 153.51135 28 ft 1 kts 82°
2026-05-01 08:14 -28.16863 153.51154 28 ft 7 kts 115°
2026-05-01 08:14 -28.16871 153.51172 28 ft 0 kts 114°
2026-05-01 08:15 -28.16863 153.51195 28 ft 8 kts 62°
2026-05-01 08:15 -28.16841 153.51238 28 ft 0 kts 60°